RH
87 85 87 85 88 92 85 77 72 67 61 57 55 48 36 29 30 29 24 24 27 23 21 24 23 18 17 19 19 19 20 23 21 17 19 24 25 24 25 28 30 30 29 28 25 22 21 23 24 23 23 22 18 21 31 41 52 66 74 64 45 32 30 33 32 33 41 44 43 46 54 66 78 84 86 90 91 92 93 89 88 91 93 92 92 90 87
86 79 76 77 81 82 76 72 70 70 66 57 51 46 37 34 34 29 25 27 26 20 18 21 21 20 18 17 19 19 18 21 22 17 17 21 22 23 25 28 30 29 28 28 27 24 22 24 25 25 24 22 20 20 27 38 47 57 65 61 51 46 41 36 40 51 57 54 52 55 59 65 75 81 85 89 90 92 94 90 87 90 92 93 92 89 86
85 72 70 74 76 77 75 73 70 71 70 66 62 57 53 52 48 41 39 40 33 22 22 29 30 27 26 23 22 25 27 29 28 24 24 23 23 27 29 28 30 31 30 32 31 26 23 24 27 29 28 25 21 19 25 37 45 50 60 62 59 60 53 40 41 55 65 64 62 60 60 63 70 76 82 88 91 92 93 90 87 88 92 94 92 88 87
83 66 67 73 76 80 83 83 81 78 78 80 77 68 66 68 67 65 63 56 43 30 30 36 33 28 32 34 32 38 45 46 42 36 29 26 29 35 36 34 34 35 35 35 34 31 28 26 27 29 31 30 27 21 21 32 44 51 56 57 59 63 59 50 46 51 62 71 70 66 65 64 64 69 77 85 91 94 93 90 88 87 90 93 91 89 88
82 64 64 72 78 86 92 91 89 85 82 84 81 73 67 68 71 76 75 63 50 42 40 40 35 32 37 40 42 46 46 46 51 49 37 29 32 35 37 37 37 39 39 37 37 39 39 36 31 28 30 33 34 28 21 22 35 49 49 42 44 53 60 63 64 63 71 79 77 74 73 67 61 65 75 84 88 91 91 89 89 88 87 89 92 90 88
83 67 66 72 78 88 94 89 83 84 84 87 92 88 75 67 68 71 70 65 59 55 52 47 42 43 48 48 48 48 45 46 56 58 45 36 36 35 36 38 38 40 41 41 44 48 49 47 44 41 42 44 44 42 35 23 21 36 45 35 27 38 54 66 69 69 77 83 83 81 77 71 68 69 74 82 86 87 90 90 89 88 86 86 91 91 88
72 65 66 75 82 88 88 82 78 81 81 83 91 89 75 70 77 82 81 80 75 70 67 61 56 57 61 56 49 49 49 50 54 52 44 39 39 39 39 38 39 43 46 48 51 51 47 44 46 51 54 54 52 49 47 39 27 30 43 39 26 29 42 53 58 64 71 73 77 83 82 76 75 74 75 82 87 89 90 90 88 87 86 86 90 92 89
62 67 68 76 88 88 82 81 82 84 85 88 93 89 77 77 86 92 93 90 84 80 77 71 69 70 67 58 50 49 48 44 44 44 40 38 39 40 41 43 46 50 53 55 56 53 46 40 41 49 55 59 58 51 47 45 36 30 37 39 32 28 31 39 49 57 58 52 51 65 80 83 78 77 79 82 84 86 89 90 89 87 87 87 89 92 90
62 70 64 64 77 83 84 88 89 89 91 95 97 95 89 86 87 91 97 95 87 86 84 77 74 74 68 59 52 47 43 40 42 45 44 47 50 48 48 50 53 56 57 58 59 56 49 42 39 42 45 47 52 54 53 51 42 33 33 37 36 32 29 37 47 52 55 51 40 42 65 83 83 78 77 78 81 85 88 89 88 87 87 87 89 92 92
56 62 62 64 74 84 91 94 88 83 83 85 91 97 94 89 87 90 96 96 89 88 89 85 80 80 77 68 57 53 53 54 56 60 61 63 63 61 57 51 50 58 63 60 60 58 56 56 57 58 56 50 44 46 52 56 51 41 33 33 37 37 34 37 44 50 57 61 53 49 64 81 84 78 74 75 80 82 80 78 80 84 87 89 91 93 91
52 60 69 77 85 91 95 95 85 78 77 80 88 93 88 85 89 91 92 94 93 91 93 91 89 92 93 84 70 66 69 70 73 74 71 66 61 62 66 63 58 64 67 64 62 62 63 67 68 67 64 54 42 41 47 53 56 51 39 32 34 38 37 35 35 42 52 59 62 68 76 80 80 77 71 70 74 76 74 72 76 84 89 91 94 95 93
53 58 64 74 85 90 91 90 83 76 78 84 88 89 87 87 92 92 92 94 93 93 94 93 94 97 98 93 82 75 74 78 82 79 70 67 65 63 69 75 74 71 70 70 71 69 67 67 65 63 60 50 44 52 59 58 57 54 45 36 32 34 38 38 37 40 46 53 64 75 80 78 78 74 67 65 70 73 73 73 78 85 91 94 96 97 95
55 58 62 69 80 88 89 86 81 78 82 87 90 94 95 95 93 91 92 94 93 93 94 95 97 97 94 93 91 86 84 85 84 78 72 74 78 77 77 82 83 77 74 77 79 77 76 77 76 76 76 70 66 72 76 72 64 56 49 44 36 33 34 37 39 41 40 45 59 73 79 79 75 71 66 65 68 69 70 73 79 84 90 95 98 99 96
59 58 59 64 74 85 88 84 80 82 88 93 95 97 96 94 95 95 93 92 91 92 92 93 98 99 95 95 95 91 88 86 85 85 84 84 88 87 81 80 84 84 79 77 78 74 73 81 85 84 84 84 80 80 82 81 72 61 53 47 41 35 34 36 39 37 33 38 51 63 73 78 76 72 70 69 71 73 76 80 83 87 92 96 98 99 97
63 62 67 78 86 84 84 88 88 88 94 99 99 97 94 92 94 96 95 92 90 89 90 91 96 99 98 98 98 95 91 91 93 95 95 95 95 88 78 75 81 86 86 87 87 79 74 83 90 88 90 92 86 82 82 80 73 64 57 52 46 37 32 36 42 40 34 40 55 66 75 80 79 76 76 77 81 86 89 91 92 94 97 98 98 99 99
68 77 81 84 81 72 73 89 95 92 92 95 96 97 96 94 94 95 95 92 86 83 85 90 94 97 98 99 99 97 95 95 97 98 98 98 97 90 85 86 89 92 96 99 97 86 81 88 92 90 93 97 91 86 84 79 73 67 60 57 56 49 41 40 46 51 49 48 57 72 80 81 80 80 82 86 91 93 95 97 98 97 97 98 99 99 99
61 75 74 63 58 59 64 75 83 85 85 85 87 90 91 92 95 96 94 89 81 77 82 89 92 93 95 97 97 98 98 97 98 99 99 100 99 95 93 94 94 96 98 99 97 92 91 96 98 95 97 99 93 87 83 77 73 70 63 59 61 66 68 64 59 62 65 62 65 76 83 83 83 85 88 92 96 98 98 99 97 96 98 99 100 99 100
51 62 60 50 50 57 60 62 71 79 80 78 77 79 82 86 89 90 89 85 78 73 77 85 90 90 90 91 93 97 101 99 97 98 98 99 100 99 98 97 97 97 93 86 86 94 99 99 99 99 99 98 92 85 80 74 71 69 66 63 60 65 77 86 82 76 77 79 82 86 87 87 87 89 92 96 98 98 98 97 95 96 98 99 99 100 100
50 53 53 51 52 56 58 59 67 74 75 74 73 72 76 81 81 82 84 81 76 73 73 77 81 84 85 86 88 94 100 100 98 98 99 99 100 99 99 100 98 95 88 78 77 89 100 101 100 100 97 95 93 88 81 76 71 68 67 65 61 59 64 76 86 88 87 90 93 93 92 93 92 91 93 97 97 95 95 96 97 98 100 100 100 100 99
49 46 49 52 53 54 54 59 68 72 72 72 70 68 74 77 74 74 78 77 76 78 78 73 72 75 79 83 86 89 94 98 99 98 99 100 100 100 99 100 97 92 87 82 82 90 99 101 99 98 95 95 97 95 89 83 77 71 67 64 62 59 58 63 77 89 93 96 99 99 97 97 95 94 95 96 96 93 93 96 98 99 99 100 99 99 99
48 47 50 54 56 55 52 58 68 71 70 70 68 66 72 76 71 68 70 72 74 78 80 78 76 73 72 76 82 86 88 92 97 100 100 99 99 100 100 99 99 96 92 89 89 94 100 101 99 99 96 92 93 98 99 95 87 76 69 66 66 65 64 66 73 80 85 89 92 94 95 96 96 95 94 94 94 95 95 96 98 99 99 99 99 100 100
61 57 56 59 63 59 54 58 67 69 68 70 68 65 68 72 70 68 67 67 67 71 75 77 78 76 70 68 75 83 85 86 89 91 93 97 98 99 99 99 98 98 97 97 96 97 100 100 99 100 96 86 87 96 100 98 96 88 75 70 73 76 77 78 77 76 78 82 82 82 89 96 96 94 93 93 94 96 98 98 98 99 99 97 97 96 95
66 58 56 58 59 56 53 57 65 67 67 68 67 66 66 68 70 71 68 65 64 65 69 72 73 75 72 68 70 77 81 83 83 80 80 87 93 95 95 95 95 96 97 98 98 99 100 100 99 99 94 85 86 97 100 97 99 96 84 76 79 83 85 85 83 80 83 89 88 87 92 96 93 91 94 95 92 93 96 98 98 98 99 98 97 96 95
58 56 57 56 54 54 56 58 61 65 66 66 66 67 65 65 68 69 67 67 67 64 65 68 69 69 70 67 67 71 75 79 82 81 78 79 83 87 89 88 88 91 94 96 97 97 100 100 99 99 96 90 89 96 100 99 99 99 94 89 90 93 93 92 91 88 90 94 95 95 96 96 90 88 91 93 92 92 94 95 95 97 98 98 99 99 98
55 55 54 49 47 52 57 57 59 63 65 64 64 66 66 64 65 65 65 70 73 69 66 67 65 64 65 64 64 68 71 74 78 81 81 79 78 80 82 80 79 83 89 91 92 93 96 99 100 99 98 97 97 97 99 99 99 99 97 93 92 97 99 98 98 98 97 97 97 96 95 94 94 94 94 94 96 96 94 94 96 97 97 97 98 99 100
51 53 53 49 47 51 56 58 60 61 62 61 62 65 65 64 63 63 64 69 74 76 73 69 65 63 63 63 62 64 68 72 74 77 80 81 80 79 78 76 74 75 81 85 86 88 92 96 99 100 99 99 99 99 99 99 99 99 98 94 93 96 98 98 99 100 99 99 99 99 97 94 95 98 98 97 98 98 96 97 99 99 98 98 98 99 100
49 52 56 55 54 55 58 60 60 59 58 59 61 63 64 65 64 64 64 65 70 77 78 73 68 65 63 63 63 63 65 70 73 75 77 80 81 80 77 74 70 69 75 80 82 85 88 92 96 99 100 100 100 99 99 100 99 99 100 99 98 99 98 98 98 97 97 98 98 98 98 98 98 99 100 99 99 99 99 99 100 99 99 100 100 100 100
52 55 58 59 59 60 61 61 60 58 56 58 61 64 66 67 67 67 67 66 68 76 80 79 74 68 64 64 64 64 65 68 70 74 78 81 83 82 78 72 68 69 75 81 81 81 82 86 91 97 99 99 99 99 99 100 99 99 99 99 99 99 99 99 98 96 95 97 98 97 98 99 99 99 99 99 99 99 99 97 96 96 97 97 97 99 100
57 61 63 62 61 61 61 59 57 57 58 61 63 65 68 70 70 71 72 71 71 74 80 84 82 74 68 67 66 65 66 68 69 72 78 82 84 85 84 78 73 73 78 83 85 83 82 82 87 95 99 100 100 99 99 99 99 99 99 99 99 99 99 99 99 98 96 96 98 99 98 99 99 99 99 99 99 99 99 98 97 97 97 96 95 98 99
59 62 63 63 62 61 61 58 55 56 60 61 62 65 69 72 72 73 75 76 75 75 77 82 85 80 72 69 69 67 67 69 69 72 78 83 85 87 87 86 84 82 84 88 89 88 86 84 87 94 99 100 99 98 98 99 100 100 99 100 99 99 100 99 99 99 99 98 98 99 99 98 99 99 99 99 99 99 99 99 97 98 98 97 96 97 98
58 57 58 61 63 62 62 61 59 60 61 62 63 65 69 72 73 74 78 79 78 78 77 79 82 83 77 73 72 70 69 70 71 74 78 84 87 88 89 91 92 91 91 92 90 86 83 83 87 94 99 100 99 97 96 97 99 100 99 99 100 99 99 100 99 99 99 100 99 99 99 99 99 99 99 99 100 99 98 97 96 96 97 97 97 98 97
55 51 52 58 61 61 62 61 60 60 62 64 67 68 70 73 73 75 78 80 81 81 80 78 79 81 81 78 76 74 74 74 74 75 79 83 86 88 88 90 92 91 90 90 89 84 81 84 89 95 97 99 100 98 94 92 96 100 99 99 100 100 99 99 100 99 99 100 100 99 99 99 99 99 99 99 100 99 99 98 97 97 97 97 97 96 96
54 51 53 57 59 61 61 60 59 60 62 65 69 70 72 73 74 75 79 82 83 83 83 81 80 81 82 81 77 76 77 78 77 76 78 80 81 84 86 87 88 87 86 86 86 83 81 83 88 93 97 99 100 98 93 90 94 100 101 99 99 100 99 99 100 100 99 99 99 100 100 99 99 99 98 97 97 98 98 98 98 98 98 98 97 96 95
54 54 56 57 59 60 60 58 59 61 63 65 69 72 73 74 74 76 79 81 83 85 85 84 82 82 82 80 76 74 77 80 80 79 79 78 77 79 81 83 83 82 80 81 84 85 81 78 79 84 92 99 101 98 93 91 94 99 101 99 99 100 99 97 98 99 100 100 99 99 99 99 99 99 97 94 92 92 92 91 92 95 97 97 97 98 97
52 54 57 58 59 60 59 57 59 62 65 68 72 74 75 75 75 78 80 82 84 87 87 85 84 84 84 82 80 79 80 82 81 81 81 80 77 76 75 77 79 79 77 79 85 88 84 77 73 75 81 91 98 100 98 96 97 99 100 99 100 100 99 98 98 98 99 100 99 98 99 100 99 99 98 96 94 93 92 91 92 96 97 96 95 97 99
51 53 57 60 61 60 59 58 60 63 67 71 75 77 77 77 77 79 82 84 86 88 88 87 86 86 86 85 85 84 83 83 82 81 81 80 78 75 72 74 78 78 76 78 85 89 85 78 75 74 74 80 91 99 100 99 99 100 100 99 99 99 99 99 99 98 99 100 100 99 99 99 99 99 99 99 99 98 98 98 98 99 98 95 93 95 99
52 54 58 61 61 61 60 59 61 64 69 75 79 81 82 82 81 82 84 86 88 89 89 87 86 86 86 87 86 84 83 83 82 81 80 81 80 76 73 75 78 80 80 82 87 90 86 81 79 79 76 78 88 97 100 100 100 100 99 99 99 100 100 100 99 99 99 99 100 99 98 98 100 100 99 99 99 99 99 100 100 100 99 97 96 97 99
51 54 58 61 62 63 64 64 65 69 75 80 83 86 87 87 86 85 86 88 89 90 90 89 88 86 86 87 87 85 83 82 82 80 79 80 80 79 80 83 85 87 89 90 91 91 86 81 81 82 80 80 87 95 98 98 99 100 100 100 100 99 99 100 100 100 100 100 100 99 98 99 100 100 99 99 99 99 99 99 99 100 100 99 98 99 100
53 54 57 62 65 68 69 69 70 74 80 83 86 89 90 89 88 87 88 90 91 92 93 93 91 88 87 87 88 87 84 82 83 82 80 79 80 82 85 90 92 92 91 89 89 89 85 81 82 85 83 81 85 89 90 91 92 93 94 96 99 100 100 99 100 100 99 100 100 100 99 100 100 99 99 100 99 99 99 99 99 99 100 99 99 100 100
54 54 56 61 64 68 71 72 73 76 80 83 86 88 89 88 87 87 88 90 92 92 94 95 95 93 89 86 86 88 87 84 84 83 81 81 82 83 83 85 88 89 88 86 86 87 84 80 81 85 86 84 84 84 84 83 85 86 86 89 94 99 100 99 100 100 100 99 100 100 99 99 100 99 99 100 100 99 99 99 99 99 99 99 99 100 99
53 53 56 58 60 63 68 70 70 72 75 78 80 81 82 84 85 84 85 88 91 93 95 97 98 97 94 88 85 87 88 85 84 83 80 78 78 77 76 77 80 81 82 84 87 88 86 84 83 84 85 84 85 86 85 83 83 84 85 88 93 98 100 99 99 100 100 99 99 100 100 99 100 100 99 99 99 99 99 99 99 99 99 99 99 99 99
50 51 53 54 56 59 63 64 62 64 66 68 69 70 72 76 79 80 81 83 84 85 90 94 94 95 98 95 88 86 90 90 88 86 84 83 83 82 79 78 78 76 76 79 82 83 85 87 87 87 86 84 83 84 86 86 84 83 83 87 93 98 99 99 99 100 100 100 99 100 100 99 99 99 100 100 99 100 99 99 99 99 99 99 99 100 99
50 51 51 51 54 57 59 59 58 60 61 61 62 64 67 71 73 75 76 77 76 74 74 73 70 73 87 98 95 89 91 94 93 91 92 93 93 92 88 85 84 81 79 78 76 76 78 80 81 83 85 85 83 82 82 84 86 86 86 90 96 100 99 98 99 100 99 100 100 99 100 99 98 98 98 98 98 98 99 99 99 100 100 100 100 100 100
53 53 52 54 57 58 58 57 57 59 61 59 59 64 67 68 69 70 70 72 74 74 72 67 55 47 60 83 94 94 92 93 91 91 94 98 97 92 87 85 85 84 83 82 80 77 75 75 73 73 75 78 81 81 80 79 82 86 88 91 96 99 99 99 100 100 99 100 100 99 99 100 99 98 97 96 96 96 96 96 97 98 98 98 97 98 98
55 54 55 60 62 60 59 58 57 59 61 57 56 63 68 67 68 69 68 68 70 73 76 76 64 46 44 65 86 92 91 92 91 85 82 87 92 89 78 69 70 73 75 77 79 79 78 78 77 74 71 71 74 77 80 78 78 80 84 86 89 93 96 97 98 99 99 99 99 99 99 99 100 99 98 97 96 96 95 94 94 94 92 91 90 91 92
53 53 56 60 59 57 58 59 57 58 59 56 53 59 64 65 67 69 66 64 68 71 74 78 75 60 51 64 80 80 75 80 89 87 77 75 85 87 72 53 49 54 56 55 58 62 66 70 72 73 73 72 69 69 73 78 78 77 79 80 82 85 89 90 92 94 95 94 95 97 98 98 98 99 99 99 98 98 97 95 93 92 91 90 89 89 89
51 51 52 54 52 51 54 56 54 54 56 54 52 55 59 62 67 69 63 58 64 69 70 75 79 70 58 61 68 64 55 60 75 84 79 75 84 91 75 48 34 39 44 46 46 44 41 45 51 56 62 69 70 66 65 69 72 74 77 79 79 81 83 84 85 87 88 88 89 91 91 93 95 96 96 97 98 98 98 97 96 95 94 93 91 91 91
53 51 48 50 50 48 48 50 49 49 52 53 55 56 55 57 66 70 61 53 57 62 64 69 76 72 59 49 43 38 37 45 56 63 62 63 75 87 78 50 30 29 38 49 53 44 31 28 34 36 40 50 60 62 62 63 63 63 67 71 74 77 80 81 81 83 83 83 84 86 87 90 92 92 89 89 91 93 94 96 97 98 98 96 94 93 93
53 50 48 49 49 46 45 44 42 41 45 50 54 54 50 51 61 66 56 45 48 56 59 63 70 73 65 50 31 18 18 27 35 38 40 45 57 68 65 46 29 25 33 45 52 44 30 26 29 29 27 31 39 45 51 55 55 53 55 57 58 62 67 70 73 77 79 79 81 84 86 90 93 92 88 86 88 88 88 89 91 93 95 97 97 97 97
52 49 46 45 44 43 44 41 37 37 43 48 51 49 45 46 56 61 50 39 43 53 56 58 66 72 69 58 41 24 14 14 18 21 23 27 38 50 53 42 28 25 34 48 53 43 29 24 26 26 25 28 31 32 36 41 43 44 46 47 46 46 49 51 52 56 60 63 66 70 75 82 89 92 91 90 90 89 88 87 87 87 88 89 90 92 94
52 48 45 42 41 42 45 44 39 38 42 48 51 50 44 44 54 58 49 40 46 54 53 54 65 73 70 61 51 37 20 11 12 15 13 12 23 39 48 43 31 25 34 53 63 52 32 25 27 28 27 30 33 33 33 37 38 38 40 41 41 40 40 40 40 42 44 46 48 50 53 59 66 70 72 73 75 78 81 83 83 83 86 89 89 89 91
51 49 45 43 42 42 44 46 42 37 40 48 52 44 34 36 50 59 55 51 51 44 32 35 57 74 71 58 47 34 19 11 13 14 10 9 14 22 27 30 28 25 29 48 65 59 39 27 28 30 28 29 33 34 34 36 38 39 41 44 46 45 42 40 39 40 41 42 44 45 44 44 45 47 48 49 52 57 62 63 60 61 67 73 76 79 82
Wind_Speed
14 14 16 18 15 12 14 15 16 15 15 15 13 13 15 13 10 11 12 14 15 13 11 12 13 12 10 11 15 16 16 21 23 19 15 16 18 16 15 17 19 20 22 24 24 25 27 27 26 25 24 24 26 31 36 38 38 42 43 40 37 36 36 36 36 38 39 39 38 37 36 38 39 40 40 41 42 42 42 40 37 37 38 36 37 37 35
16 13 11 11 11 11 11 11 12 12 13 14 13 13 15 15 15 16 17 18 17 14 13 12 13 15 15 16 18 18 17 20 23 20 17 19 20 17 15 18 22 23 22 24 26 26 26 26 27 28 29 30 28 27 33 39 40 40 41 39 37 35 35 35 36 38 39 40 41 40 39 39 40 41 41 41 43 43 42 41 38 38 38 37 37 37 36
12 11 7 7 10 10 9 11 13 14 14 12 10 10 12 13 15 17 18 18 15 11 9 12 16 18 16 15 17 17 15 17 19 19 18 20 18 16 16 19 22 22 20 22 26 26 27 27 27 27 29 31 33 32 30 36 41 40 39 39 38 36 35 34 35 37 40 41 42 42 41 41 41 41 42 42 43 44 43 42 40 39 39 39 38 38 38
8 9 9 11 13 8 4 9 17 17 15 12 10 11 11 11 13 16 15 13 10 8 10 13 16 17 13 11 14 17 20 24 25 23 22 21 17 15 18 20 21 21 21 23 24 24 24 26 27 28 27 28 32 35 33 32 37 39 38 38 39 39 37 36 35 37 39 41 41 42 43 42 41 42 42 43 43 43 44 44 43 41 41 41 40 40 40
8 10 13 14 12 5 2 8 14 14 13 14 14 13 13 13 12 12 11 11 11 14 15 16 16 15 12 11 11 13 17 25 29 28 25 22 19 19 20 22 22 21 23 24 23 20 18 19 22 25 25 24 27 32 35 35 35 37 39 38 40 42 40 38 38 37 38 39 40 42 43 42 42 42 42 43 43 44 45 45 45 43 43 43 42 41 42
8 13 14 10 6 4 4 6 8 10 14 16 15 14 15 14 10 9 12 14 16 17 17 17 17 17 18 19 18 18 20 23 24 26 25 22 21 22 22 23 22 21 23 23 22 22 20 17 16 18 20 23 24 25 29 34 35 37 40 38 38 42 42 40 41 41 39 38 38 40 42 42 42 41 42 42 43 43 44 45 46 46 45 44 44 43 43
7 10 10 8 5 3 3 5 5 9 13 13 13 13 11 10 13 14 17 18 19 19 19 20 20 22 26 27 23 20 21 22 23 24 25 23 23 24 24 24 23 21 21 21 22 26 28 23 19 17 18 22 25 26 26 30 32 35 41 41 39 41 43 42 42 43 43 40 37 37 40 42 42 41 41 43 44 43 44 46 48 47 46 45 45 45 45
6 7 8 8 3 1 3 5 5 9 9 8 10 8 3 11 14 14 16 19 20 19 21 23 22 25 30 27 21 20 21 21 21 23 25 24 22 23 22 21 20 19 19 20 23 26 28 27 25 22 20 20 23 26 29 30 31 31 37 42 43 44 46 45 44 43 44 42 37 35 38 42 43 42 42 44 45 45 45 47 48 48 47 47 47 46 45
5 7 8 5 2 1 6 8 9 12 10 8 10 6 2 9 15 17 16 19 20 18 18 21 21 23 24 19 16 18 20 20 17 17 19 19 18 20 20 19 18 18 19 20 22 25 25 25 27 28 28 26 24 25 28 31 34 33 33 39 45 47 48 47 45 43 43 42 38 36 40 43 44 45 45 45 45 46 47 47 47 49 49 48 47 46 44
4 7 7 6 5 6 9 12 15 19 19 14 9 5 1 6 17 23 20 18 20 19 17 19 19 16 13 11 10 10 9 9 10 11 13 15 16 18 20 22 22 20 20 21 22 22 22 23 24 25 27 28 28 28 29 31 36 38 36 37 41 47 49 48 45 44 43 42 40 40 43 46 47 47 47 46 46 47 48 46 46 49 50 48 46 44 44
5 7 7 7 5 3 7 14 18 23 27 21 9 4 1 8 20 28 25 20 19 20 22 24 18 10 6 6 8 11 12 13 15 17 20 20 19 19 21 23 24 22 21 21 21 21 23 25 27 27 28 30 31 31 32 34 36 40 41 40 38 43 49 49 47 46 44 43 43 44 46 48 50 50 49 47 46 47 47 45 45 48 49 48 46 45 44
7 7 6 4 2 2 9 15 19 27 31 20 7 4 6 13 23 26 25 23 24 27 31 26 13 6 6 8 14 22 23 20 19 20 22 23 21 21 20 20 22 23 22 21 22 24 26 28 29 30 31 31 32 32 33 35 38 39 42 43 40 39 46 49 48 48 48 46 46 47 49 50 51 51 51 49 47 47 46 44 45 47 48 48 47 45 44
7 8 7 3 1 2 10 16 21 29 28 13 6 8 11 20 27 23 21 27 32 35 35 26 14 14 19 18 21 26 24 21 22 22 21 21 19 18 18 17 20 22 22 21 22 24 25 25 26 27 27 26 28 30 32 35 39 39 39 42 42 40 43 49 50 49 48 48 49 49 49 51 52 51 51 49 47 46 45 43 45 47 47 46 46 45 44
7 6 7 5 1 4 14 20 20 21 15 6 7 14 19 25 30 23 20 29 37 38 37 34 28 28 31 28 22 20 19 19 20 20 18 17 16 15 16 15 16 19 22 23 23 25 25 24 25 24 24 26 30 33 33 34 37 37 37 39 41 41 43 47 49 50 48 48 50 51 49 49 51 52 51 49 47 45 43 42 44 46 45 45 45 43 43
5 5 7 5 2 6 16 18 13 10 9 8 12 20 24 27 30 25 21 28 36 39 39 40 37 34 36 37 30 21 16 14 13 13 12 12 12 12 12 12 13 17 21 23 24 26 24 22 23 25 25 28 33 37 39 36 33 32 33 35 38 42 45 46 46 47 50 49 49 51 51 50 49 50 49 48 46 43 41 41 43 44 44 44 44 43 43
4 5 6 4 3 9 15 12 7 11 16 17 19 22 24 28 30 27 22 26 34 39 39 39 39 38 38 39 39 34 24 16 13 11 9 8 8 8 9 11 12 14 18 21 23 25 22 20 24 28 29 29 32 35 38 37 33 30 31 33 32 32 38 46 48 45 47 51 51 50 51 50 48 48 47 46 44 41 40 41 42 42 42 43 42 42 42
3 1 2 6 9 13 16 13 13 20 24 25 25 25 26 29 30 27 22 24 32 38 39 38 39 39 40 42 45 44 37 31 26 19 15 13 9 8 9 8 8 11 13 16 19 18 16 14 16 19 20 24 29 31 32 32 30 31 34 37 32 24 25 34 48 48 45 49 51 49 49 48 48 47 45 43 42 40 39 40 42 42 41 40 40 40 41
3 2 1 11 15 15 17 17 19 22 24 26 28 28 27 29 29 25 22 24 30 35 37 38 38 40 43 46 47 45 40 39 37 29 24 21 16 15 16 11 11 16 18 20 20 11 10 10 8 6 5 7 15 22 26 27 27 29 33 35 35 28 24 19 28 41 44 45 47 46 46 46 45 44 42 40 39 39 40 41 42 42 41 40 39 39 39
6 1 6 15 18 15 16 20 23 24 24 26 28 28 28 29 29 24 21 23 27 31 34 37 38 40 43 46 47 45 42 43 42 36 31 28 24 23 24 22 21 23 25 29 29 18 4 19 26 22 19 15 7 4 13 20 22 25 29 31 33 34 28 21 16 19 29 37 39 39 41 41 40 39 38 38 38 38 39 40 41 41 40 39 39 39 39
7 4 10 19 18 13 15 21 24 25 25 27 28 29 28 28 27 23 20 22 25 28 31 35 37 40 43 44 44 45 44 44 45 40 36 34 32 31 31 30 30 29 27 29 32 31 25 32 39 35 32 31 25 17 6 7 14 18 22 24 25 25 27 27 21 13 13 24 28 30 33 35 36 35 35 35 36 37 38 39 40 40 40 40 39 39 37
6 5 13 20 16 10 14 22 23 23 24 26 28 29 27 28 28 25 22 22 23 26 29 32 33 35 39 41 41 42 42 43 44 43 42 42 40 37 37 37 35 33 31 31 32 36 38 41 43 40 38 37 32 27 20 10 1 8 12 14 13 13 16 22 22 15 11 13 17 21 24 26 28 31 32 33 33 34 35 35 36 37 39 39 38 36 34
4 6 13 16 12 9 14 22 23 22 23 25 26 28 28 28 29 27 24 23 23 25 28 30 30 31 35 37 38 39 39 41 44 45 47 47 44 41 42 43 40 38 37 35 34 37 41 43 44 42 39 35 30 28 26 23 17 10 8 7 6 7 10 12 14 15 14 13 15 19 20 22 26 28 28 29 31 31 32 32 31 31 33 34 34 33 32
6 10 14 15 14 13 16 21 21 21 23 24 25 26 27 27 27 26 25 26 26 26 27 28 28 28 31 35 37 37 38 39 42 45 47 46 45 44 45 45 44 43 41 39 38 40 43 44 44 43 41 34 28 27 26 26 26 22 16 13 11 9 8 5 6 11 12 11 16 20 20 22 26 27 25 26 29 29 28 27 26 27 28 29 30 31 33
10 13 14 15 16 16 17 20 20 20 21 23 24 25 25 26 26 25 24 26 27 28 28 28 27 27 28 32 35 36 38 38 38 40 43 44 44 45 44 44 44 43 42 42 41 41 43 46 44 42 41 36 30 26 24 23 26 26 21 18 18 17 15 12 8 9 9 4 6 10 10 12 16 19 20 21 23 24 24 22 20 19 20 22 23 25 28
11 12 14 15 14 14 16 18 18 19 20 21 22 23 24 25 25 23 24 25 26 28 29 29 28 28 28 30 32 33 34 36 36 36 38 41 43 44 44 44 44 43 41 42 43 43 43 45 44 42 40 36 31 28 25 22 23 24 21 17 15 15 16 15 11 8 7 6 4 3 3 4 5 7 10 13 14 16 17 17 15 14 15 17 18 20 22
10 11 15 17 14 12 15 17 17 19 20 21 21 22 23 23 23 22 22 23 24 27 29 28 28 28 28 28 30 30 31 33 34 35 35 37 39 40 41 40 39 40 40 40 42 43 43 43 44 43 40 36 31 29 28 24 22 22 21 18 14 11 10 10 8 7 7 7 6 7 5 1 3 4 4 6 8 8 9 12 14 16 18 20 21 22 23
9 10 14 16 14 13 16 18 17 18 18 19 20 21 22 22 21 21 21 22 23 26 27 27 27 28 28 28 29 30 30 31 32 33 34 34 34 36 37 36 35 37 39 39 40 41 42 42 43 43 42 38 32 29 29 28 27 26 25 23 19 15 13 12 10 8 5 4 4 5 4 3 4 5 6 6 6 6 7 9 10 12 15 18 21 23 25
9 11 12 12 12 15 17 16 16 17 17 18 19 20 21 22 21 21 23 24 24 25 27 28 28 28 28 28 28 28 29 30 30 32 32 32 31 32 34 34 33 34 37 39 38 38 38 39 40 41 42 39 34 29 28 29 29 29 29 29 26 21 17 16 14 10 6 3 3 3 3 3 3 5 7 8 9 9 9 9 9 10 13 16 17 19 21
10 11 11 11 12 14 14 14 14 16 17 18 19 19 21 22 22 22 24 24 23 24 26 27 28 27 26 26 27 27 28 29 29 29 30 30 29 30 31 32 32 33 36 38 38 37 36 36 37 39 40 39 35 30 28 29 29 29 29 30 30 26 21 17 15 12 9 7 5 4 3 2 3 5 6 7 8 9 8 7 8 9 12 15 16 17 18
10 10 10 11 12 13 13 13 14 15 16 18 18 19 20 21 21 22 24 24 23 23 24 25 26 26 25 25 25 25 25 26 26 27 27 29 29 28 29 32 34 36 38 39 38 37 36 36 35 36 38 38 34 30 29 30 31 30 28 28 29 27 23 21 20 17 13 10 8 7 4 2 1 2 3 4 6 6 6 6 6 7 8 10 11 13 14
10 9 9 10 12 13 13 13 14 15 16 17 18 19 20 21 22 22 23 24 23 23 23 24 24 25 24 23 23 23 23 23 24 25 26 28 29 28 27 30 35 37 37 37 37 36 36 36 36 36 35 35 32 30 29 31 31 29 27 27 28 26 23 21 21 20 17 13 12 10 8 6 5 4 3 3 4 5 5 4 3 4 6 7 8 9 10
10 9 8 10 12 13 13 14 14 15 16 17 18 19 20 21 21 21 22 23 23 22 22 23 23 23 23 22 22 22 22 21 23 24 25 27 29 29 27 28 32 34 34 35 36 36 35 36 36 36 35 33 30 28 29 30 31 29 27 25 26 25 24 22 21 21 20 19 17 16 13 10 10 9 10 10 9 8 8 8 7 5 5 5 7 8 9
9 9 9 11 13 13 14 15 15 15 16 16 16 17 17 18 19 20 20 21 21 21 22 22 22 21 21 21 21 22 22 21 22 23 25 26 28 29 28 28 30 31 32 33 34 34 35 35 34 34 35 34 30 27 26 27 29 30 28 26 24 24 24 23 21 20 20 21 21 20 17 14 13 14 15 14 13 12 12 12 11 9 8 6 6 7 7
7 8 8 10 10 11 13 15 15 15 16 16 15 15 16 17 18 18 19 20 21 21 21 21 20 20 20 20 21 21 22 22 23 22 23 25 26 26 26 26 27 27 28 31 33 34 34 33 33 33 34 35 33 29 26 25 27 29 28 27 25 24 22 21 20 20 20 20 19 19 19 17 15 16 17 17 17 17 17 17 17 16 14 11 9 6 6
6 6 7 7 8 9 11 12 13 14 15 16 15 16 16 17 17 18 18 19 20 20 20 20 19 19 19 20 21 21 21 21 21 21 21 22 24 24 23 22 23 24 25 28 32 34 32 31 31 32 32 33 34 33 30 28 27 27 27 27 26 24 22 20 20 20 20 19 18 18 20 19 17 16 16 17 17 17 17 18 19 18 18 17 15 11 9
5 6 6 7 8 9 10 11 12 12 13 14 15 15 15 16 17 17 17 17 18 19 20 19 19 19 19 20 20 20 20 19 19 19 19 19 20 22 22 22 23 24 24 26 30 32 31 30 31 31 30 30 33 34 34 32 30 28 27 28 28 26 24 22 20 19 20 19 19 19 19 18 17 16 16 16 17 17 17 18 18 18 19 20 19 16 12
4 5 6 7 8 9 10 10 11 11 11 12 13 13 14 15 16 16 15 16 17 18 18 18 19 19 18 18 16 15 16 16 16 16 17 18 19 20 21 23 25 25 25 27 30 30 28 28 28 29 28 29 30 32 33 33 31 29 28 28 28 28 26 24 22 20 19 19 19 19 19 20 21 20 20 20 21 21 20 19 19 19 19 20 19 17 14
4 5 5 7 8 8 9 9 10 10 10 11 11 12 13 14 14 15 14 15 16 18 17 17 17 17 17 17 16 15 15 16 14 12 13 15 17 20 23 25 26 26 25 27 29 28 26 25 26 27 27 26 27 28 29 30 31 31 31 30 29 28 27 25 24 22 20 19 19 19 19 20 22 23 23 23 24 24 24 24 24 24 23 22 20 19 16
4 5 5 6 7 8 8 8 9 9 9 10 10 11 12 13 13 13 13 14 15 16 17 16 16 16 17 18 18 17 17 17 15 12 11 11 12 16 21 24 24 23 22 23 25 25 24 24 25 26 25 24 24 24 25 26 29 32 32 30 29 29 27 26 25 23 20 19 18 19 19 19 19 20 21 22 22 23 24 24 23 24 25 25 24 23 22
5 5 6 6 6 7 7 8 8 8 8 9 9 10 11 12 12 12 13 13 14 14 15 16 15 16 16 17 17 17 18 18 17 15 13 11 10 12 16 20 21 21 20 20 23 25 24 24 26 26 24 23 23 23 23 23 25 26 26 26 26 26 25 25 25 24 23 20 18 18 18 18 17 17 19 19 20 21 22 22 21 21 22 22 22 22 22
5 5 6 6 6 6 6 6 7 8 8 8 9 9 10 10 11 11 12 12 13 13 14 14 14 14 15 15 14 15 16 17 16 16 16 15 14 15 17 19 21 21 20 19 21 22 23 24 26 27 25 24 24 24 23 22 20 18 19 22 23 23 24 24 24 24 23 22 21 19 18 17 16 16 17 18 18 19 20 21 21 20 21 21 20 20 20
6 6 6 6 6 6 6 6 6 7 7 7 8 8 8 8 9 10 10 11 12 12 12 12 12 12 13 13 13 13 14 15 14 15 16 16 16 17 18 19 19 19 19 18 19 20 20 21 23 25 25 24 24 24 24 22 19 16 16 18 19 21 22 23 23 23 23 22 21 21 19 18 17 16 16 16 16 17 17 17 17 18 18 19 19 19 19
6 6 6 5 5 5 5 5 6 6 6 6 7 7 7 7 8 9 9 10 12 13 13 13 13 13 12 13 13 13 13 14 13 12 12 13 13 15 17 18 17 17 17 17 17 19 19 19 20 21 21 21 21 21 22 23 22 20 18 17 17 18 20 20 21 22 22 22 22 22 21 20 19 17 16 16 15 14 14 14 14 14 14 15 15 15 16
5 5 5 5 5 4 4 4 5 5 5 6 6 6 6 7 7 8 8 9 10 11 13 14 15 15 14 12 12 13 13 14 13 12 12 11 12 13 15 17 17 17 17 17 17 18 17 17 18 19 19 18 18 18 18 20 21 22 21 20 19 18 18 18 19 19 20 21 22 23 22 21 20 19 18 17 16 15 14 13 12 12 11 11 11 11 11
5 6 6 5 5 4 4 4 4 4 5 6 6 5 5 6 6 7 7 8 8 9 10 11 15 17 16 13 11 11 10 10 11 13 13 14 14 14 16 17 18 18 17 17 17 17 17 17 17 17 17 17 17 16 16 17 18 18 19 19 19 19 19 19 18 18 18 19 20 20 20 20 20 19 18 17 17 16 16 15 14 13 12 11 11 11 10
6 6 6 5 4 4 3 3 4 4 4 5 4 4 5 6 6 6 6 7 7 7 7 8 11 16 16 13 11 10 8 7 8 11 14 14 14 15 17 18 18 17 17 17 17 17 17 17 16 16 15 15 15 15 14 15 15 15 15 16 16 16 17 17 18 18 18 18 18 19 19 20 20 19 18 17 16 16 16 16 15 14 14 13 13 12 11
6 6 5 5 4 3 3 3 4 3 3 3 3 4 5 6 5 5 6 7 7 6 5 5 8 12 14 12 11 11 9 7 6 8 11 11 12 13 16 18 17 15 15 17 18 18 17 17 16 16 15 14 14 14 14 14 13 13 14 14 14 14 13 14 15 16 17 17 17 17 17 18 18 18 17 17 16 16 15 15 15 15 14 14 13 12 11
6 5 5 4 3 3 3 3 3 2 2 2 3 4 5 5 4 4 5 7 7 5 4 5 7 10 13 14 13 13 11 9 7 7 9 9 9 9 13 16 16 14 13 14 16 17 18 17 16 16 15 14 13 13 13 13 13 13 13 13 13 13 12 12 12 12 12 13 13 13 13 14 14 15 14 14 14 14 14 13 13 13 12 12 12 11 11
6 6 5 5 4 3 2 2 2 2 2 2 2 3 5 5 3 3 5 6 6 5 5 5 6 9 12 15 15 15 14 11 9 8 8 8 8 8 11 14 14 13 13 14 15 16 17 16 16 16 15 15 14 14 14 13 13 13 13 13 13 13 13 13 12 11 10 10 10 10 10 10 10 9 9 11 12 13 13 12 12 12 11 10 10 10 9
7 6 6 5 4 3 3 2 2 1 1 2 2 3 4 4 3 4 5 5 5 5 5 5 6 7 11 14 16 16 15 13 10 9 9 9 9 9 11 13 13 12 13 14 15 15 16 16 16 15 15 16 16 16 15 15 15 14 14 13 13 13 13 13 12 12 12 12 11 10 10 9 8 7 8 9 11 12 12 11 11 10 9 9 9 9 9
7 6 5 4 3 3 3 3 1 1 1 1 1 2 4 3 2 4 6 6 5 3 3 4 5 7 10 12 13 14 15 14 12 10 10 10 9 10 11 12 12 11 12 13 15 16 16 15 15 15 15 14 14 15 15 15 15 15 15 15 15 14 13 13 13 13 13 13 12 12 11 10 9 8 9 9 9 10 10 10 10 9 9 9 10 10 10
8 7 6 4 4 4 4 3 2 1 1 0 1 3 4 2 1 3 7 7 5 3 3 2 3 6 11 13 12 13 14 13 12 10 10 10 9 10 10 11 11 11 11 12 13 14 15 15 14 14 14 13 13 13 13 13 14 14 15 15 16 15 15 14 14 13 13 12 12 13 13 12 12 11 11 10 9 9 9 10 10 10 9 9 10 10 10
Wind_Direction
277 273 273 278 283 280 278 279 282 289 291 281 273 271 274 274 270 272 276 275 276 281 284 283 289 293 289 293 297 296 300 300 283 260 250 266 268 259 260 275 281 273 266 266 258 242 240 246 248 249 246 238 228 217 211 211 210 211 214 215 213 215 217 218 220 219 214 213 215 216 214 213 211 211 211 212 215 215 216 216 213 213 215 215 214 213 211
296 291 287 291 302 302 298 302 303 306 308 297 284 278 281 286 283 280 284 282 277 278 280 282 295 299 292 289 289 278 272 282 281 263 244 248 255 254 254 262 269 264 255 261 261 244 232 235 239 241 243 243 243 232 214 207 209 212 215 215 213 212 213 216 217 216 215 215 216 214 212 211 210 210 210 212 213 214 216 215 213 213 214 215 216 215 213
299 307 318 322 329 324 315 330 342 341 333 329 326 318 311 305 298 295 300 296 286 285 309 329 329 319 305 294 296 297 296 297 293 278 262 255 256 262 262 256 260 263 261 266 267 251 234 231 235 237 238 237 239 240 225 208 207 212 213 213 212 210 211 213 216 217 218 218 217 215 213 210 209 210 210 211 213 214 215 215 213 212 213 215 217 217 215
301 313 330 333 331 322 303 343 352 348 342 340 336 329 322 313 311 312 309 299 292 306 329 330 318 310 306 300 303 316 324 318 307 289 273 265 266 276 276 267 264 266 265 267 270 261 242 235 236 235 237 237 235 237 235 220 211 209 211 214 214 212 210 211 213 217 219 219 218 216 214 211 209 208 209 210 213 214 215 216 216 214 213 214 216 216 216
297 305 323 327 323 315 335 349 342 338 339 332 322 318 316 314 315 311 300 294 301 311 315 312 304 299 299 293 289 294 298 298 296 288 275 264 261 265 266 267 268 266 265 267 272 275 265 254 249 240 238 243 241 238 238 233 221 211 210 216 218 215 213 209 208 212 214 216 217 216 214 213 209 206 207 210 212 214 215 216 216 215 214 214 215 216 216
295 307 314 316 326 2 11 338 320 325 331 323 315 311 310 318 328 323 313 310 310 311 306 302 301 301 299 292 279 262 250 253 264 274 276 269 267 267 264 264 266 264 265 267 270 275 273 271 270 258 247 249 251 247 242 239 233 219 212 216 219 218 216 211 208 210 209 210 214 216 216 214 209 205 205 209 212 213 213 214 214 215 214 213 215 216 216
294 311 317 329 4 39 344 310 304 321 322 315 310 300 306 352 4 345 329 316 309 310 305 300 300 300 297 292 281 261 243 237 242 254 264 264 262 265 263 259 258 259 264 268 271 272 269 267 272 273 264 258 257 257 253 248 241 226 214 215 218 218 218 215 212 211 209 208 211 216 218 216 211 207 206 209 211 211 212 214 215 215 214 213 214 216 216
309 323 338 346 352 199 309 316 317 324 322 324 325 312 1 31 3 332 320 312 303 299 294 293 296 296 293 287 275 261 250 247 249 254 260 262 261 264 264 257 256 260 263 267 270 272 269 266 266 265 266 268 265 263 261 255 248 235 219 216 218 218 219 217 213 211 211 209 210 216 220 219 214 210 208 208 210 211 212 214 215 216 215 214 216 217 216
338 330 335 339 293 325 352 341 331 334 332 333 333 321 45 25 350 330 326 322 318 314 303 295 291 290 292 286 272 266 258 253 256 257 262 272 280 281 274 266 269 274 272 270 270 271 272 270 267 264 262 264 267 267 264 257 251 246 232 219 217 218 218 214 211 210 210 209 209 214 220 221 216 212 211 210 210 211 212 213 214 215 215 215 217 217 216
347 334 340 352 352 0 355 338 331 331 329 329 329 295 227 13 351 341 336 327 328 337 336 320 307 296 296 291 284 291 288 281 285 282 279 282 285 286 280 272 276 281 277 272 269 270 271 268 266 265 263 263 267 269 268 260 251 248 244 231 220 217 216 212 209 210 210 209 209 210 213 217 217 214 212 212 211 212 214 215 216 216 215 215 216 216 216
357 352 356 1 3 15 349 336 332 329 328 328 322 275 298 360 347 343 340 332 334 346 346 336 325 308 297 289 288 306 320 323 317 304 297 291 283 283 283 277 278 282 279 275 269 265 263 261 262 265 266 268 270 270 268 262 252 246 244 240 230 219 214 213 212 212 211 210 209 208 209 213 216 214 213 213 212 214 216 217 216 215 214 214 216 216 216
360 358 3 10 24 22 346 336 333 330 325 321 321 338 349 338 333 339 344 341 344 348 343 338 332 302 290 278 283 299 309 312 305 295 292 291 285 282 282 279 277 276 274 275 274 270 268 268 268 269 269 271 269 265 263 259 252 245 241 240 239 228 215 211 211 212 213 211 208 208 210 213 215 214 214 214 214 214 217 218 216 214 213 214 216 217 217
356 360 5 12 119 35 350 337 333 331 323 318 5 358 323 313 316 330 352 354 351 348 342 339 337 328 326 313 298 303 310 306 302 300 294 287 282 278 274 275 278 274 269 271 275 277 275 272 268 265 264 265 262 257 257 255 250 245 240 238 240 235 221 214 211 210 212 212 208 207 210 214 216 215 214 214 214 215 216 216 213 212 212 214 216 218 219
354 359 358 354 60 44 355 336 332 337 334 347 1 327 311 315 319 329 2 6 357 350 345 342 340 341 347 348 334 318 310 303 305 308 298 284 280 275 266 267 277 278 275 274 278 283 283 274 267 261 255 252 249 245 246 248 247 246 245 241 241 238 228 219 216 215 214 213 212 211 212 214 216 215 213 212 214 215 214 212 210 210 211 213 215 217 221
350 1 5 359 349 4 352 338 334 355 3 352 329 317 319 329 330 336 3 11 1 354 348 344 346 354 359 1 1 351 326 311 312 312 306 298 288 276 269 272 281 286 285 284 286 289 287 274 259 253 248 247 246 243 240 240 242 244 245 244 245 244 235 223 218 218 216 214 212 211 211 212 212 212 211 211 211 211 210 208 206 207 210 213 215 217 220
0 4 7 12 339 342 351 355 358 357 349 340 332 326 326 330 334 343 0 9 5 360 353 349 355 3 2 2 11 13 4 357 354 343 345 347 320 304 306 298 296 299 296 294 297 293 283 264 250 247 248 249 249 247 241 238 238 239 238 240 246 253 246 228 217 216 215 212 210 209 208 209 210 209 209 209 208 208 208 206 205 206 209 212 214 217 219
33 92 355 17 9 352 356 8 5 353 349 346 342 337 330 329 336 349 1 6 7 5 360 357 1 5 2 5 14 17 13 15 16 11 16 23 15 11 2 332 325 338 328 321 317 295 262 245 240 238 241 244 244 243 239 238 242 241 239 239 241 261 271 237 215 211 211 208 206 207 207 207 207 207 207 207 206 206 208 207 206 206 208 211 214 215 216
17 178 43 15 7 357 355 359 356 352 351 349 344 340 334 333 342 356 7 9 9 8 6 4 4 6 6 9 13 14 14 17 18 15 19 26 33 39 38 38 33 23 18 13 356 309 212 160 133 143 158 215 237 239 237 240 245 246 246 244 240 251 282 269 221 213 212 204 198 200 203 204 205 207 207 206 206 207 207 207 207 207 209 211 212 212 213
343 349 45 14 359 354 355 353 351 352 350 347 345 342 338 339 348 360 9 12 11 11 12 11 7 7 9 11 12 12 13 16 17 15 17 23 31 38 41 46 49 41 33 27 12 350 48 92 84 81 78 71 48 298 251 247 248 245 245 245 239 242 258 274 267 238 215 200 195 196 198 201 204 207 208 207 206 207 207 207 207 208 208 208 207 208 210
332 7 24 3 350 348 356 353 351 350 346 343 344 342 340 347 357 360 2 10 12 10 13 16 14 11 11 11 11 12 13 15 17 18 20 22 30 39 42 44 50 47 40 34 21 4 16 55 66 67 67 64 55 44 23 264 252 244 239 239 239 241 240 242 254 258 209 192 191 192 197 201 203 206 208 208 208 210 210 209 208 208 208 208 209 210 210
323 359 1 353 347 344 351 352 349 347 344 342 342 343 345 355 3 1 358 6 11 9 10 15 17 16 14 11 11 13 14 14 15 18 22 24 28 36 41 44 49 48 43 41 32 18 21 42 54 56 59 60 54 48 48 46 325 232 230 231 233 234 224 223 232 239 224 203 193 192 198 202 203 207 210 209 210 212 213 213 213 211 211 212 212 212 213
338 348 343 345 343 330 338 345 345 344 346 344 343 346 350 356 2 3 1 4 9 10 10 12 15 18 17 14 13 13 15 16 15 17 21 22 23 30 38 44 48 48 45 44 40 31 31 42 49 51 54 55 49 44 46 50 59 89 145 171 182 190 192 200 212 219 222 221 210 207 210 209 207 210 210 207 208 210 209 211 215 216 216 217 217 219 222
313 322 328 335 332 321 330 339 341 342 347 348 347 347 349 352 357 0 2 5 9 10 9 10 14 18 19 18 16 14 15 18 19 19 20 19 19 24 32 38 42 42 42 43 41 35 36 43 48 50 53 55 47 39 41 46 49 60 83 93 86 99 123 134 180 190 193 210 218 216 214 210 208 210 207 201 202 206 208 210 214 218 221 223 225 227 228
306 313 323 329 325 321 329 338 340 343 348 350 349 348 348 351 354 358 4 7 9 9 8 8 11 14 16 18 19 16 14 16 19 20 19 18 19 21 26 32 36 36 35 37 38 37 38 43 47 49 52 55 49 39 40 45 44 45 56 70 73 78 80 76 99 146 145 152 219 215 205 200 205 211 211 204 199 201 205 208 212 220 226 230 232 231 229
310 309 316 320 318 323 336 342 341 344 347 349 349 348 350 351 353 359 6 7 7 8 9 7 7 10 12 15 18 18 16 15 16 18 18 16 18 19 22 27 33 33 32 34 38 39 40 42 44 46 47 49 50 45 41 44 47 46 50 62 70 72 70 69 83 104 93 71 68 94 133 177 200 213 216 211 207 204 202 201 208 224 234 238 240 239 237
314 319 325 326 327 337 347 345 341 342 346 348 349 349 351 352 353 359 7 9 7 9 9 7 6 8 10 12 15 18 18 16 16 18 18 16 16 18 20 24 29 32 34 35 38 40 41 41 43 43 42 41 45 47 43 41 44 48 53 61 72 80 79 77 78 70 54 46 47 50 52 16 302 304 275 245 238 232 222 217 224 232 235 235 237 240 241
331 345 340 335 338 345 345 341 338 340 344 348 350 352 352 352 354 358 5 9 9 10 11 10 8 8 10 12 14 17 20 19 18 18 18 17 16 16 17 22 26 30 33 35 36 38 40 40 41 41 39 36 38 43 44 40 36 36 42 50 59 73 85 82 76 72 56 22 7 15 19 2 325 313 309 301 286 272 261 252 248 247 244 240 239 239 241
347 355 344 333 335 340 339 336 336 343 349 352 353 355 355 355 358 1 3 6 8 8 10 13 11 9 11 12 14 17 19 20 20 20 19 18 17 15 16 22 27 29 30 33 35 35 36 38 39 39 37 35 35 38 43 43 37 30 30 36 43 52 64 70 70 71 65 37 12 352 347 345 322 306 308 310 304 291 281 273 270 269 264 259 256 254 251
351 349 339 334 334 336 337 340 344 350 355 355 356 359 0 1 2 2 2 4 6 5 6 10 11 10 10 12 15 17 19 20 21 21 19 18 19 18 17 22 30 33 32 33 34 33 34 36 39 39 36 34 35 37 41 45 43 34 28 30 34 38 44 49 49 46 40 33 26 14 0 337 308 303 303 300 295 291 287 278 268 265 263 261 260 262 263
344 339 337 342 344 344 347 350 352 356 357 357 358 2 3 4 4 2 1 2 5 4 3 5 7 9 10 12 15 17 18 20 21 21 21 20 20 20 20 23 31 35 35 33 33 35 37 37 39 40 36 32 33 36 38 41 44 40 35 32 32 35 42 45 43 43 45 47 49 51 54 59 353 310 295 292 297 298 294 281 266 264 269 267 262 263 267
335 335 344 351 351 353 356 356 356 358 358 358 0 2 3 4 5 3 0 360 1 3 2 2 5 7 8 11 14 16 18 19 20 21 22 22 23 26 26 27 32 35 36 35 33 35 38 39 39 40 36 31 32 35 35 37 39 40 39 37 33 34 42 47 47 49 53 56 61 69 80 88 86 78 69 43 16 357 348 339 313 287 284 281 277 276 278
330 332 349 357 354 355 357 356 356 358 359 1 3 3 2 2 1 0 359 358 358 360 2 3 4 4 4 8 13 16 18 19 19 21 22 24 29 35 36 37 38 39 38 37 35 35 37 39 40 40 36 32 31 31 31 33 36 37 37 37 35 34 40 46 49 51 53 53 53 55 61 71 77 74 69 61 48 32 22 18 14 3 344 320 306 300 297
337 341 349 353 352 353 353 352 354 356 357 0 3 2 1 360 358 359 358 355 355 358 1 2 2 1 3 9 14 16 18 19 19 20 21 24 31 37 39 40 42 42 40 39 37 35 36 37 40 41 39 34 31 29 29 31 35 34 33 34 35 35 40 46 49 49 49 50 50 49 50 58 69 74 73 71 66 58 50 45 40 36 28 10 348 333 323
342 344 343 343 347 348 345 346 349 350 352 355 358 360 1 359 357 357 357 356 356 358 358 359 1 1 3 9 13 14 17 19 18 17 18 20 26 34 38 39 41 42 43 42 39 35 34 34 35 39 41 38 35 34 33 35 37 35 33 34 36 37 39 45 50 50 49 47 47 49 50 52 59 68 73 74 74 71 66 61 57 52 47 40 29 14 1
332 338 338 340 343 343 340 343 347 347 348 352 354 355 358 358 357 358 359 357 357 357 356 357 1 3 5 11 15 15 16 17 17 18 17 13 17 27 36 40 40 41 43 43 38 34 33 32 31 33 37 39 39 38 38 39 40 37 34 36 39 41 41 43 49 55 56 52 47 48 50 50 52 58 63 66 69 69 66 62 59 55 51 47 42 39 40
326 336 338 336 338 339 339 342 346 346 347 351 351 350 353 355 356 359 1 359 358 358 358 358 2 5 9 14 17 17 18 18 19 23 20 9 6 17 31 38 37 38 42 43 39 33 32 33 32 29 31 36 39 38 38 39 40 40 40 41 42 42 42 43 46 53 60 61 59 58 57 55 53 54 56 56 57 57 56 56 54 54 54 53 50 49 51
321 330 336 335 335 338 340 342 345 347 348 350 350 349 351 353 354 357 0 1 1 1 1 2 4 7 10 14 15 15 18 21 26 33 30 13 1 9 27 36 34 34 38 40 36 31 30 33 34 31 30 34 38 39 38 38 38 40 41 42 41 40 41 43 44 48 56 63 67 67 67 65 63 61 60 58 56 54 54 55 56 57 58 57 55 55 56
317 325 334 336 336 338 342 344 347 350 351 351 351 351 352 353 354 357 360 2 4 4 5 6 7 8 11 14 15 15 15 16 22 40 49 33 14 13 25 32 32 32 35 38 35 30 29 33 36 33 31 35 40 41 40 39 40 41 41 41 39 39 40 43 45 47 52 59 63 66 68 71 73 73 71 70 68 64 61 60 60 60 60 60 60 61 61
316 322 331 336 340 343 345 346 349 353 354 354 352 352 353 355 356 358 1 4 6 7 7 9 12 13 13 14 16 16 13 11 14 25 42 47 36 30 33 36 35 32 35 40 39 35 32 34 36 34 31 34 39 40 38 38 39 36 33 34 38 39 39 43 48 50 52 56 61 63 65 69 75 78 78 78 79 79 75 71 68 65 63 63 63 64 63
315 322 325 326 332 339 342 345 348 351 352 352 353 354 355 356 358 0 3 5 7 9 10 11 14 16 15 13 15 17 16 15 16 20 27 38 44 40 39 40 36 30 29 35 41 39 36 35 37 35 32 34 38 38 37 41 42 33 24 26 34 38 39 43 47 49 49 51 54 58 63 68 73 78 81 82 82 81 80 79 77 75 73 70 65 63 62
307 315 318 318 321 329 335 339 342 345 346 348 351 352 352 354 358 1 3 5 8 11 13 11 12 16 16 13 13 17 19 19 18 15 16 24 35 37 35 35 32 26 22 27 36 39 39 38 37 35 32 33 37 38 40 47 56 53 38 32 35 40 43 45 47 48 49 50 50 53 58 64 68 73 78 82 84 83 81 81 80 80 79 78 75 70 69
295 302 308 312 314 318 322 325 329 336 341 343 345 348 351 352 354 358 1 1 2 8 12 10 8 14 18 16 12 14 17 20 20 15 9 13 24 29 28 28 26 21 18 21 27 32 36 39 38 34 29 29 33 38 40 45 53 58 51 42 42 46 48 49 50 51 51 51 52 53 55 57 61 64 67 71 74 77 78 81 82 82 82 84 85 83 82
292 294 299 306 310 314 319 323 327 335 340 339 340 347 351 350 350 355 359 357 356 1 6 4 3 10 19 18 16 15 13 11 17 22 18 13 15 18 19 20 19 14 11 15 19 21 25 30 32 30 26 23 25 29 35 39 42 45 46 46 46 48 47 46 48 51 52 52 52 52 52 53 55 58 60 61 62 64 66 67 69 71 73 76 80 84 87
284 283 285 295 303 305 308 319 328 335 337 332 331 337 346 349 350 353 357 356 355 358 2 1 360 5 13 15 15 16 12 5 6 15 19 13 7 7 12 16 16 11 7 11 15 15 15 17 19 19 18 17 17 20 27 33 37 39 40 42 43 44 44 43 42 44 48 52 52 51 51 51 51 52 53 54 55 57 59 59 59 59 58 58 61 67 73
273 276 277 283 290 292 300 316 324 325 326 326 325 326 338 348 349 348 353 357 357 358 3 0 355 358 8 14 12 11 13 10 4 4 8 10 6 1 2 8 10 7 6 10 13 13 12 12 11 9 7 8 9 13 20 29 34 37 37 38 39 41 44 46 45 43 44 48 50 49 49 49 49 49 50 50 50 52 53 53 54 54 52 48 46 46 47
263 270 271 272 279 284 293 307 313 315 323 332 335 332 336 345 348 347 351 356 354 355 5 7 356 355 3 12 9 5 15 30 16 358 357 7 9 356 351 358 5 4 2 7 11 11 10 9 6 5 5 3 2 5 14 21 28 32 35 37 39 41 44 47 49 48 47 48 49 50 50 49 47 47 47 49 50 52 52 51 50 50 51 50 48 45 43
260 265 260 259 270 282 288 300 315 323 327 334 340 335 334 340 346 343 346 353 353 349 355 6 358 353 356 1 359 355 3 26 25 354 349 6 16 357 343 349 3 7 4 6 9 8 8 7 5 2 4 4 1 3 10 15 17 23 29 33 36 40 44 48 51 52 51 51 52 52 50 48 45 42 40 41 44 46 48 49 49 49 50 51 50 48 47
254 256 253 250 259 276 284 293 303 310 323 343 349 337 332 337 340 335 343 355 359 353 345 349 352 350 349 349 349 348 350 359 4 349 344 2 19 0 341 346 360 10 13 14 10 5 6 10 7 3 4 8 7 8 11 12 12 15 19 22 24 27 31 37 43 47 48 49 50 48 45 45 42 35 28 28 31 35 38 43 48 51 50 48 45 42 40
247 252 251 245 245 259 287 296 290 299 345 8 356 336 339 352 354 332 334 350 1 2 356 352 348 345 343 343 345 349 352 352 352 351 352 0 7 359 350 353 1 9 17 20 13 4 4 9 8 5 7 11 13 14 15 14 13 13 14 14 15 16 16 18 25 29 29 33 39 40 39 40 40 28 11 7 12 15 17 22 32 39 41 40 40 38 34
241 248 250 240 231 238 265 279 271 281 351 359 345 337 347 1 357 325 326 347 7 8 359 352 344 336 336 340 344 348 351 354 357 0 3 5 1 356 357 1 4 8 16 19 12 3 3 8 9 9 11 13 13 15 17 16 15 15 14 12 13 14 12 10 11 13 14 15 20 25 27 29 29 17 1 358 5 8 4 1 5 12 13 13 17 19 17
238 241 244 239 235 245 259 261 248 273 317 342 358 347 346 357 352 314 315 334 1 6 349 353 353 335 328 333 341 343 345 353 2 3 0 2 2 359 359 2 2 4 14 19 10 360 359 6 9 10 13 15 14 14 15 16 15 15 15 13 13 13 12 9 8 10 11 11 11 13 15 16 14 8 1 0 6 8 359 348 347 352 354 353 354 355 355
235 234 237 240 240 237 233 226 229 304 352 330 272 314 333 359 41 313 315 323 335 332 317 347 13 337 320 322 332 339 341 348 358 358 354 358 2 357 355 359 359 358 9 19 12 357 354 2 7 7 10 14 15 13 14 14 14 14 16 16 14 12 11 11 13 13 12 10 8 7 5 4 4 5 3 3 5 4 354 344 344 349 353 350 346 343 340